Torna al catalogo

STARLINK-5696

AttivoComunicazioniVLEO
NORAD 55484·PAYLOAD·🇺🇸 United States

Lanciato Feb 2, 2023 da Cape Canaveral Space Force Station

Loading…

Prossimi Passaggi (prossime 24 ore)

TLE

AggiornatoSource: CelesTrak SupGP

Epoca: Sep 15, 2026, 02:30 UTC

1 55484C 23015AM  26258.10465278  .00015413  00000+0  55825-3 0  2582
2 55484  43.0039 350.2815 0002058 271.0660 343.3580 15.27569700    17

Traccia STARLINK-5696 in tempo reale con AllMySat

Download on the App Store